Regional Weather Roundup
Issued by NWS

Home | Current Version | Previous Version | Graphics & Text | Print | Product List | Glossary Off
Versions: 1 2 3 4 5 6 7 8 9 10 11 12 13 14 15 16 17 18 19 20 21 22 23 24 25 26 27 28 29 30 31 32 33 34 35 36 37 38 39 40 41 42 43 44 45 46 47 48 49 50

000
ASUS43 KDMX 180301
RWRIA

WEATHER ROUNDUP FOR IOWA
NATIONAL WEATHER SERVICE DES MOINES IA
900 PM CST SAT FEB 17 2018

NOTE: "FAIR" INDICATES FEW OR NO CLOUDS BELOW 12,000 FEET WITH NO
SIGNIFICANT WEATHER AND/OR OBSTRUCTIONS TO VISIBILITY.

* - THESE STATIONS ARE NOT NWS STATIONS...THUS NOT UNDER NWS
QUALITY CONTROL.  THEY ALSO DO NOT REPORT WEATHER SUCH
AS PRECIPITATION OR FOG.

IAZ001>003-012>014-020>022-031>034-043>046-180400-
   NORTHWEST IOWA

CITY           SKY/WX    TMP DP  RH WIND       PRES   REMARKS
CARROLL *      CLEAR     28  27  93 CALM      30.13S
CHEROKEE *     CLEAR     19  18  97 CALM      30.10F
DENISON *      CLEAR     27  25  93 CALM      30.14F
LE MARS *      CLEAR     21  21 100 CALM      30.09F
ORANGE CITY *  CLEAR     19  19 100 NW3       30.07F
SHELDON *      CLEAR     21  19  93 SW7       30.08R WCI  13
SIOUX CITY     CLEAR     23  22  96 CALM      30.11F
SPENCER        CLEAR     19  16  88 SW10      30.10R WCI   7
STORM LAKE *   CLEAR     21  21 100 NW5       30.09F WCI  15
$$

IAZ055>058-069>071-079>083-090>094-180400-
   SOUTHWEST IOWA

CITY           SKY/WX    TMP DP  RH WIND       PRES   REMARKS
ATLANTIC *     CLEAR     28  28 100 CALM      30.15S
AUDUBON *      CLEAR     25  21  86 CALM      30.14F
CLARINDA *     CLEAR     27  27 100 CALM      30.18F
COUNCIL BLFS * CLEAR     32  27  80 NE3       30.13F
CRESTON *      CLEAR     30  25  80 N8        30.16S WCI  23
HARLAN  *      CLEAR     25  25 100 CALM      30.18R
LAMONI         CLEAR     33  23  66 NW5       30.16R WCI  29
RED OAK *      CLEAR     27  23  86 NE3       30.15F
SHENANDOAH *   CLEAR     28  27  93 NE3       30.16F
$$

IAZ047>049-059>061-072>074-084-180400-
   CENTRAL IOWA

CITY           SKY/WX    TMP DP  RH WIND       PRES   REMARKS
AMES           CLEAR     29  24  82 NW8       30.13S WCI  21
ANKENY *       CLEAR     28  25  86 CALM      30.17R
BOONE *        CLEAR     28  27  93 NW9       30.12S WCI  20
CHARITON *     CLEAR     32  25  74 W6        30.16R WCI  26
DES MOINES     CLEAR     30  24  78 W3        30.16R
GRINNELL*      CLEAR     28  25  89 W5        30.15R WCI  22
KNOXVILLE *    CLEAR     30  25  80 W6        30.15R WCI  24
MARSHALLTOWN   CLEAR     24  23  96 W6        30.12S WCI  17
NEWTON *       CLEAR     30  27  86 W7        30.16R WCI  23
PELLA *        CLEAR     31  26  78 W6        30.17R WCI  26
$$

IAZ004>006-015-016-023>025-035-036-180400-
   NORTH CENTRAL IOWA

CITY           SKY/WX    TMP DP  RH WIND       PRES   REMARKS
CLARION *      PTCLDY    21  23 100 W13       30.12S WCI   9
ESTHERVILLE    CLEAR     19  16  88 SW10      30.07F WCI   7
FORT DODGE *   CLEAR     24  22  91 W5        30.12S WCI  18
MASON CITY     CLEAR     26  22  84 W14       30.11R WCI  14
FOREST CITY *  FAIR      25  23  93 W7        30.09S WCI  17
WEBSTER CITY * CLEAR     19  18  93 W12       30.10S WCI   7
IOWA FALLS *   FAIR      22  20  95 W10       30.12S WCI  11
$$

IAZ007>011-017>019-026>030-037>042-050>054-066-180400-
   NORTHEAST IOWA

CITY           SKY/WX    TMP DP  RH WIND       PRES   REMARKS
CEDAR RAPIDS   FAIR      21  19  92 W9        30.12S WCI  11
CHARLES CITY * FAIR      23  25 100 W9        30.10R WCI  13
CLINTON *      MOCLDY    18  16  92 W10       30.15R WCI   6
DECORAH *      FAIR      27  25  93 SW7       30.05R WCI  19
DUBUQUE        FAIR      20  17  88 SW8       30.10R WCI  10
MONTICELLO *   FAIR      19  18  93 W7        30.12R WCI  10
OELWEIN *      FAIR      21  21 100 W12       30.11R WCI   9
WATERLOO       FAIR      25  23  92 W9        30.12R WCI  15
$$

IAZ064-065-067-068-078-180400-
   EAST CENTRAL IOWA

CITY           SKY/WX    TMP DP  RH WIND       PRES   REMARKS
DAVENPORT      FAIR      23  19  85 W7        30.16R WCI  15
IOWA CITY      FAIR      19  14  81 W3        30.16R HAZE
MT. PLEASANT * CLEAR     30  25  80 SW7       30.17R WCI  23
MUSCATINE *    FAIR      27  23  86 SW3       30.17R
QUAD CITIES    FAIR      21  18  88 SW3       30.14S
$$

IAZ062-063-075>077-085>089-095>099-180400-
   SOUTHEAST IOWA

CITY           SKY/WX    TMP DP  RH WIND       PRES   REMARKS
BURLINGTON     CLEAR     31  26  82 NW5       30.16R WCI  26
FAIRFIELD *    CLEAR     30  27  86 W6        30.16R WCI  24
FORT MADISON * CLEAR     30  28  93 W5        30.18R WCI  25
KEOKUK *       CLEAR     28  27  93 CALM      30.18R
OSKALOOSA *    FAIR      25  23  92 W9        30.16R WCI  16
OTTUMWA        CLEAR     29  25  85 SW7       30.16R WCI  22
WASHINGTON *   CLEAR     25  25 100 W6        30.17R WCI  18
$$

ABBREVIATIONS USED IN REMARKS
   TC - TEMPERATURES IN CELSIUS
  WCI - WIND CHILL INDEX
   HX - HEAT INDEX
  VSB - VISIBILITY
$$





USA.gov is the U.S. government's official web portal to all federal, state and local government web resources and services.